Location: Cheyres
(46.8153°N, 6.7877°E)
Time: 00:36:15
(UTC+00:00)

Tiros 1 - Pass Details

Date: 31 May 2022
Orbit: 629 x 663 km, 48.4° (Epoch: 05 July)

Event Time Altitude Azimuth Distance (km) Brightness Sun altitude
Exits shadow 22:25:09 47° 152° (SSE) 838 7.3 -19.6°
Maximum altitude 22:25:11 47° 151° (SSE) 838 7.3 -19.6°
Drops below altitude 10° 22:29:38 10° 78° (ENE) 2,014 9.7 -19.8°
Sets 22:32:01 0° 72° (ENE) 2,928 10.6 -19.9°
